Wind_Speed
2 2 1 2 2 3 2 2 2 2 2 2 2 2 3 3 3 4 4 4 4 4 4 5 5 6 6 6 5 5 5 6 6 7 6 6 7 7 7 8 8 7 7
2 2 2 2 2 3 3 2 2 3 2 2 3 3 3 4 4 4 4 5 5 5 5 5 6 6 7 7 6 6 6 7 6 7 7 7 8 8 7 8 8 8 8
3 3 2 2 2 3 3 3 2 2 3 3 3 4 4 4 5 5 6 5 6 6 6 6 5 6 7 8 7 7 7 7 7 8 8 8 8 8 8 9 9 8 9
3 4 3 3 3 3 3 3 3 3 3 3 3 3 4 5 5 5 6 6 6 7 6 6 6 6 7 8 8 8 9 9 9 9 9 9 10 10 9 10 9 10 10
4 4 4 4 3 3 3 3 3 3 3 4 4 4 4 5 6 6 6 7 7 7 7 7 7 7 7 7 8 8 9 10 10 10 10 10 10 10 10 10 10 11 11
4 4 4 3 3 3 4 4 4 4 4 4 4 5 5 5 5 6 6 7 8 8 8 8 8 8 9 9 9 9 9 10 10 11 10 10 10 10 11 11 11 11 11
5 5 4 4 4 4 4 5 5 5 5 5 5 5 5 6 6 6 7 8 8 9 9 9 9 10 10 10 10 10 10 10 10 10 11 11 11 11 12 13 13 13 12
5 5 5 5 5 6 6 6 6 6 6 6 6 6 6 6 7 7 8 8 9 9 10 10 10 10 10 11 11 11 11 11 11 11 10 11 11 12 12 12 12 12 13
6 6 6 6 6 6 6 6 7 6 6 7 7 7 7 7 7 8 8 9 9 10 10 10 11 11 12 12 12 12 11 12 12 12 11 11 11 12 12 13 13 13 14
6 6 6 6 6 6 7 7 7 7 7 6 7 7 8 8 8 8 9 9 9 10 10 10 11 11 12 12 12 12 12 12 11 12 11 12 12 13 13 14 14 14 15
6 6 6 7 7 7 7 7 7 7 7 6 7 7 7 8 8 9 10 10 10 10 10 11 11 12 12 13 13 13 12 12 12 11 12 12 12 13 13 14 14 14 14
6 6 6 7 7 8 7 7 7 8 7 7 7 8 8 8 9 10 10 11 11 10 10 11 12 12 13 13 14 14 14 14 14 13 13 13 13 13 14 14 15 15 14
6 6 6 7 7 8 8 8 7 8 8 8 8 9 9 9 9 10 10 11 11 11 11 11 12 13 13 14 14 14 15 15 15 15 15 15 15 15 14 14 15 15 14
6 6 6 6 7 8 8 8 8 8 9 10 10 10 10 11 11 11 11 11 11 11 11 12 12 13 14 15 15 15 15 15 15 15 16 16 16 15 15 15 14 14 15
6 6 7 7 7 8 8 8 8 8 9 10 10 11 11 12 12 12 12 13 12 12 12 12 13 14 14 15 15 16 16 16 16 16 17 17 17 16 16 16 15 15 15
7 6 7 8 8 8 8 8 8 9 10 10 11 11 12 12 12 13 13 13 13 13 13 13 14 14 15 15 16 16 17 17 17 16 17 17 17 17 17 17 16 16 15
7 7 8 8 9 8 9 9 9 10 10 10 11 12 12 12 12 13 13 13 13 13 14 14 14 14 15 15 16 17 17 17 17 17 17 17 17 17 17 16 17 16 16
8 8 8 9 9 9 10 10 10 11 11 11 12 12 12 13 13 13 13 13 14 14 14 14 15 15 15 15 15 16 17 17 17 17 17 17 16 17 17 17 17 17 17
8 9 9 9 9 10 10 10 10 11 12 12 12 12 13 14 14 14 14 15 15 15 15 16 16 15 15 16 16 15 16 17 17 17 17 17 16 16 17 17 17 17 17
9 9 9 10 10 11 10 10 10 11 11 12 12 13 14 14 15 15 16 16 16 17 17 17 17 17 17 17 17 16 16 17 17 18 18 18 18 17 17 17 17 17 16
9 9 10 10 10 11 11 10 10 11 11 12 12 13 14 15 15 15 16 17 17 18 18 18 18 18 18 18 18 17 17 17 17 18 18 18 18 18 18 18 18 17 17
9 9 10 10 10 10 10 10 11 11 12 12 13 13 14 15 15 15 16 17 17 18 18 18 18 19 19 19 19 19 18 18 18 18 19 19 19 19 19 19 18 18 18
10 10 10 10 10 10 10 11 11 11 12 12 13 13 14 14 15 15 16 16 17 17 18 18 18 18 18 19 19 19 19 19 19 19 20 20 20 20 20 20 20 19 19
10 10 10 10 10 10 11 11 11 12 12 12 12 13 14 14 15 15 15 16 17 17 17 17 17 18 18 18 19 19 19 20 19 20 20 20 20 21 21 21 21 21 20
11 11 11 10 10 11 11 12 12 12 12 12 12 13 14 14 15 15 15 16 16 16 17 17 17 17 18 18 18 19 19 20 20 20 20 20 20 20 20 21 21 21 21
12 12 12 11 11 12 11 11 11 11 12 13 14 14 14 15 15 15 15 15 15 15 16 16 17 17 18 19 18 19 19 19 20 21 21 20 19 19 20 20 21 21 21
Wind_Direction
214 223 249 266 260 261 276 268 249 244 245 226 225 229 228 232 246 248 250 255 256 259 260 258 260 260 256 250 242 236 236 237 234 230 227 222 218 217 221 216 214 215 221
217 222 253 267 263 263 267 266 252 247 248 245 248 246 242 241 248 250 254 254 252 261 265 264 267 258 251 247 246 242 242 243 237 231 231 227 225 227 230 228 228 229 230
223 227 240 250 262 269 270 262 251 250 251 253 253 252 251 251 253 253 254 255 254 257 261 265 264 257 254 249 249 249 248 250 244 237 238 238 236 238 240 237 233 235 237
239 236 236 239 253 264 272 266 258 252 251 256 253 258 257 256 259 257 256 253 256 261 263 261 260 259 258 255 254 255 251 253 245 241 240 240 240 242 246 243 239 240 241
249 246 240 235 240 248 262 274 269 265 253 250 252 261 261 262 263 264 259 255 257 261 264 261 259 259 257 259 260 259 255 253 247 247 246 245 245 245 245 245 244 246 244
251 252 248 243 242 247 254 266 272 274 269 264 261 262 261 268 270 267 266 264 259 258 259 260 259 259 258 257 259 261 256 251 249 249 249 248 249 248 246 246 247 247 246
253 255 255 258 259 258 262 266 268 270 277 277 270 265 263 267 268 269 269 266 264 261 258 255 257 258 260 259 259 261 257 251 248 251 251 251 252 250 248 249 249 249 249
257 263 262 262 263 265 264 264 262 263 266 268 268 265 263 269 268 267 268 267 265 264 262 259 258 257 258 257 255 258 255 249 247 249 253 255 256 253 252 252 250 249 251
259 262 266 265 266 267 267 268 263 264 266 266 265 264 265 267 269 267 268 269 268 266 264 261 259 258 259 258 255 254 254 248 249 252 254 256 258 255 252 253 253 253 255
263 265 266 269 270 272 270 267 263 262 265 267 266 264 266 267 268 268 268 270 270 270 267 263 261 260 260 259 258 255 253 249 252 255 256 259 258 257 257 257 255 255 256
268 272 272 272 271 275 275 268 265 260 261 266 266 268 273 273 271 269 269 270 270 270 268 265 263 261 261 261 260 257 256 256 257 258 257 258 259 259 259 259 259 260 261
273 274 273 273 274 275 276 274 270 264 262 267 272 275 276 273 271 269 269 269 270 268 266 264 264 262 260 260 260 260 260 259 257 256 254 255 258 259 258 261 262 261 261
274 276 273 274 275 276 277 278 276 271 268 272 277 276 276 275 273 274 274 271 269 266 263 264 266 264 262 262 262 261 261 258 257 255 255 256 260 259 259 261 262 262 261
278 278 274 274 277 276 275 275 275 273 273 275 278 279 276 275 274 275 274 273 271 268 266 265 267 266 264 263 262 260 260 257 255 253 253 255 259 259 259 260 260 262 263
282 281 276 274 277 275 275 275 273 272 272 275 276 280 280 277 275 275 274 273 271 270 269 269 268 268 265 263 262 261 258 256 259 258 256 256 258 258 258 258 259 261 261
284 284 277 276 278 280 279 276 274 272 272 274 276 278 279 279 279 277 275 272 271 270 270 270 269 266 264 261 261 260 258 257 259 259 259 259 258 258 259 258 258 259 261
283 283 284 281 282 283 280 276 273 273 275 275 276 278 278 278 281 281 279 274 271 270 270 270 271 267 265 263 261 260 259 257 256 256 258 260 261 260 259 258 259 259 261
286 284 284 286 287 286 284 281 277 276 279 280 280 280 279 279 282 282 281 277 271 268 268 269 269 268 267 265 264 261 260 258 258 257 258 259 260 258 258 259 260 260 261
285 285 286 287 286 288 286 282 282 281 281 283 284 283 281 280 281 281 280 277 272 270 269 268 268 268 268 267 265 263 261 261 261 258 257 257 257 257 257 258 259 260 262
287 288 291 290 286 287 286 281 281 282 284 285 286 287 285 282 280 279 278 276 274 272 272 270 270 269 267 266 263 261 260 261 261 258 256 257 257 257 258 257 258 259 261
288 290 292 292 293 292 287 284 282 283 284 286 287 289 288 285 283 282 280 276 273 271 270 270 270 270 268 266 265 264 262 260 260 258 257 257 257 258 259 258 259 258 259
288 288 289 290 292 293 289 285 283 283 285 286 287 290 290 289 287 284 283 279 275 272 270 269 269 269 267 265 265 265 264 263 260 259 258 257 256 257 258 258 258 258 258
288 287 287 287 291 293 292 289 285 286 289 288 289 292 292 292 289 287 286 282 278 273 271 270 268 267 266 265 265 264 263 263 264 260 259 258 257 258 258 259 258 257 258
287 285 284 286 290 293 293 291 288 288 290 292 291 290 292 294 293 291 290 287 281 276 272 270 268 268 267 265 264 264 263 262 262 261 262 261 260 259 259 259 259 259 259
284 284 283 285 288 291 295 294 291 291 292 292 291 291 292 294 294 293 292 289 285 279 275 270 267 269 269 267 265 265 265 263 261 261 262 262 261 261 260 259 259 259 259
278 280 283 284 286 290 291 293 292 293 293 293 294 294 294 295 295 294 294 292 288 283 277 271 267 268 268 266 266 267 267 265 263 261 261 261 262 262 261 261 261 261 260
Height
5857 5857 5857 5858 5858 5858 5858 5859 5859 5859 5860 5860 5860 5861 5861 5862 5863 5863 5864 5864 5865 5866 5866 5867 5867 5868 5868 5869 5870 5871 5872 5872 5873 5874 5875 5875 5876 5878 5878 5880 5881 5881 5883
5856 5856 5857 5857 5857 5858 5858 5858 5858 5859 5859 5860 5860 5861 5861 5862 5862 5863 5863 5864 5864 5865 5866 5866 5866 5866 5867 5868 5869 5870 5870 5871 5872 5873 5874 5874 5875 5877 5878 5879 5880 5880 5882
5856 5856 5856 5857 5857 5857 5857 5857 5858 5858 5859 5859 5859 5860 5861 5861 5861 5862 5862 5863 5863 5864 5865 5865 5865 5866 5866 5867 5868 5869 5869 5870 5871 5872 5873 5873 5874 5875 5876 5877 5878 5879 5880
5855 5855 5856 5856 5856 5856 5856 5857 5857 5857 5858 5858 5859 5859 5860 5860 5861 5861 5861 5862 5862 5863 5864 5865 5865 5865 5866 5866 5867 5867 5868 5869 5869 5870 5871 5872 5873 5874 5875 5875 5877 5878 5879
5854 5855 5855 5855 5855 5856 5856 5856 5856 5857 5857 5857 5858 5858 5858 5859 5859 5860 5860 5861 5861 5862 5863 5863 5864 5864 5864 5865 5865 5866 5866 5867 5868 5869 5870 5870 5871 5872 5873 5874 5875 5876 5877
5854 5854 5854 5854 5855 5855 5855 5855 5855 5856 5856 5856 5856 5857 5857 5857 5858 5858 5859 5859 5860 5860 5861 5861 5862 5862 5863 5863 5864 5864 5864 5865 5866 5867 5868 5868 5869 5870 5871 5872 5873 5874 5875
5853 5853 5853 5854 5854 5854 5854 5854 5855 5855 5855 5855 5855 5856 5856 5856 5857 5857 5857 5858 5858 5859 5859 5860 5860 5861 5861 5861 5862 5862 5862 5863 5864 5865 5866 5867 5867 5868 5869 5870 5871 5872 5872
5852 5852 5852 5852 5853 5853 5853 5853 5853 5854 5854 5854 5854 5854 5854 5855 5855 5855 5856 5856 5856 5857 5857 5858 5858 5859 5859 5859 5860 5860 5860 5861 5862 5863 5864 5865 5865 5866 5867 5868 5869 5869 5870
5850 5850 5851 5851 5851 5851 5851 5852 5852 5852 5852 5852 5852 5852 5852 5853 5853 5853 5854 5854 5854 5854 5855 5856 5856 5856 5857 5857 5857 5858 5858 5859 5860 5861 5862 5862 5863 5863 5865 5866 5866 5867 5868
5849 5849 5849 5849 5850 5850 5850 5850 5850 5850 5850 5851 5851 5851 5851 5851 5851 5851 5851 5851 5852 5852 5852 5853 5853 5854 5854 5855 5855 5856 5856 5857 5858 5858 5859 5860 5861 5861 5862 5863 5864 5864 5865
5848 5848 5848 5848 5848 5848 5848 5848 5848 5848 5849 5849 5849 5849 5849 5849 5849 5849 5849 5849 5849 5849 5850 5850 5851 5851 5852 5852 5853 5853 5854 5855 5855 5856 5857 5857 5858 5859 5860 5860 5861 5862 5862
5846 5846 5846 5846 5846 5846 5846 5846 5846 5846 5846 5847 5847 5847 5847 5847 5847 5847 5847 5847 5847 5847 5847 5847 5848 5848 5849 5849 5850 5851 5852 5852 5853 5854 5854 5855 5856 5856 5857 5857 5858 5859 5859
5844 5844 5844 5844 5844 5844 5844 5844 5844 5844 5844 5845 5845 5845 5845 5844 5844 5844 5844 5844 5844 5844 5844 5845 5845 5846 5846 5847 5847 5848 5849 5849 5850 5850 5851 5852 5852 5853 5854 5855 5855 5855 5856
5843 5842 5842 5842 5842 5842 5842 5842 5842 5842 5842 5842 5842 5842 5842 5842 5842 5841 5841 5841 5841 5842 5842 5842 5842 5843 5843 5844 5844 5845 5846 5846 5847 5847 5848 5849 5850 5850 5851 5851 5852 5852 5853
5841 5841 5840 5840 5840 5840 5840 5840 5840 5840 5840 5840 5839 5839 5839 5839 5839 5838 5838 5838 5839 5839 5839 5839 5839 5839 5840 5841 5841 5842 5842 5843 5843 5844 5845 5845 5846 5847 5848 5848 5849 5849 5850
5839 5839 5838 5838 5838 5838 5838 5838 5837 5837 5837 5837 5837 5836 5836 5836 5835 5835 5835 5835 5835 5835 5835 5836 5836 5836 5836 5837 5838 5838 5838 5839 5840 5840 5841 5842 5842 5843 5844 5845 5845 5846 5846
5837 5837 5836 5836 5836 5835 5835 5835 5835 5834 5834 5834 5833 5833 5832 5832 5832 5832 5832 5832 5832 5832 5832 5832 5832 5832 5833 5833 5834 5834 5835 5835 5836 5837 5837 5838 5839 5839 5840 5841 5842 5842 5843
5835 5834 5834 5833 5833 5833 5832 5832 5832 5831 5831 5830 5830 5829 5829 5829 5828 5828 5828 5828 5828 5828 5828 5828 5828 5829 5829 5829 5830 5830 5830 5831 5832 5832 5833 5834 5835 5835 5836 5837 5838 5838 5839
5833 5832 5831 5831 5830 5830 5829 5829 5829 5828 5828 5827 5827 5826 5826 5825 5825 5824 5824 5824 5824 5824 5824 5825 5825 5825 5825 5825 5826 5826 5826 5827 5828 5828 5829 5830 5831 5831 5832 5833 5834 5834 5835
5830 5830 5829 5828 5828 5827 5827 5826 5826 5825 5825 5824 5823 5823 5822 5822 5821 5821 5820 5820 5820 5820 5820 5820 5821 5821 5821 5821 5822 5822 5822 5823 5824 5824 5825 5826 5826 5827 5828 5829 5829 5830 5830
5828 5827 5827 5826 5825 5824 5824 5823 5823 5822 5822 5821 5820 5819 5818 5818 5817 5816 5816 5816 5815 5815 5816 5816 5816 5816 5817 5817 5818 5818 5818 5819 5819 5820 5821 5821 5822 5823 5823 5824 5825 5826 5826
5826 5825 5824 5824 5823 5822 5821 5820 5820 5819 5819 5818 5817 5816 5815 5814 5813 5812 5811 5811 5811 5811 5811 5811 5811 5812 5812 5812 5813 5813 5814 5815 5815 5815 5816 5816 5817 5818 5819 5819 5820 5821 5821
5823 5823 5822 5821 5820 5819 5818 5817 5817 5816 5815 5815 5814 5813 5811 5810 5809 5808 5807 5806 5806 5806 5806 5806 5806 5807 5807 5808 5808 5809 5809 5810 5810 5811 5811 5812 5812 5813 5814 5814 5815 5815 5816
5820 5820 5819 5818 5817 5816 5815 5814 5814 5813 5812 5811 5810 5809 5808 5807 5805 5804 5803 5802 5801 5801 5801 5801 5802 5802 5802 5803 5803 5803 5804 5804 5805 5806 5806 5806 5807 5808 5808 5809 5810 5810 5811
5818 5817 5816 5815 5814 5813 5812 5811 5810 5809 5809 5808 5806 5806 5804 5803 5802 5800 5799 5797 5796 5796 5796 5797 5797 5797 5798 5798 5798 5798 5799 5799 5800 5800 5801 5802 5802 5802 5803 5803 5804 5805 5805
5815 5814 5813 5812 5811 5810 5809 5808 5807 5806 5805 5804 5803 5802 5801 5799 5798 5796 5795 5794 5793 5792 5792 5792 5792 5793 5793 5793 5793 5793 5794 5794 5794 5795 5796 5796 5797 5797 5797 5798 5798 5799 5799